User: anonymous
Location: Vancouver
(49.2500°N, 123.1330°W)
Time: 08:41:36
(UTC-07:00)
Language:

S-56A Canister/Altair - Orbit

View from above orbital plane
View from above orbital plane
View from above satellite
View from above satellite

Ground track
Ground track

The orbit data is extracted from the following two-line orbital elements,

1 00082U 61004B   14234.02513657 -.00000039  00000-0 -63545-5 0  7129
2 00082 038.8635 148.6646 1178207 264.6362 081.9105 12.25640141546853
Epoch (UTC): 22 August 2014 00:36:11
Eccentricity: 0.1178207
inclination: 38.8635°
perigee height: 632 km
apogee height: 2504 km
right ascension of ascending node: 148.6646°
argument of perigee: 264.6362°
revolutions per day: 12.25640141
mean anomaly at epoch: 81.9105°
orbit number at epoch: 54685

The dashed part of the orbit path shows where the satellite is in the earth's shadow,  

DLR